Location: Unspecified
(34.4950°S, 58.5160°W)
Time: 03:45:43
(UTC+00:00)

ARIANE 6 FM1 Upper Stage - Visible Passes

Search period start: 18 February 2026 00:00
Search period end: 28 February 2026 00:00
Orbit: 522 x 608 km, 62.0° (Epoch: 17 February)

Date Brightness Start Highest point End Pass type
(mag) Time Alt. Az. Time Alt. Az. Time Alt. Az.
21 Feb 6.1 08:54:15 10° SSE 08:55:24 11° SE 08:56:33 10° SE visible
22 Feb 5.8 08:52:57 10° S 08:55:35 15° SE 08:58:11 10° E visible
23 Feb 5.7 08:52:17 10° S 08:55:43 21° SE 08:59:06 10° E visible
24 Feb 4.6 00:25:58 10° NNW 00:35:52 - SE 00:27:02 17° NNW visible
24 Feb 5.9 02:11:37 11° SSW 02:11:37 11° SSW 02:11:59 10° S visible
24 Feb 5.0 08:51:50 10° S 08:55:48 29° SE 08:59:41 10° ENE visible
25 Feb 2.8 00:25:50 10° NW 00:30:04 79° WSW 00:34:29 10° SSE visible
25 Feb 4.2 08:51:30 10° SSW 08:55:49 42° SE 09:00:01 10° NE visible
26 Feb 3.6 00:25:52 10° NW 00:30:00 51° SW 00:34:19 10° SSE visible
26 Feb 3.4 08:51:17 10° SSW 08:55:47 64° SE 09:00:09 10° NE visible
27 Feb 4.4 00:26:06 10° WNW 00:30:00 34° SW 00:34:03 10° SSE visible
27 Feb 6.1 07:14:14 10° SSE 07:16:04 12° SE 07:17:56 10° ESE visible
27 Feb 2.8 08:51:10 10° SW 08:55:41 83° WNW 09:00:06 10° NNE visible
